AFR25 KLAX-LFPG

Flight info

Callsign AFR25
Flight time N/A
Altitude 31000
Route ORCKA5 LAS Q70 BLIPP Q842 WINEN DCT KU54O DCT KU72S DCT KU03W DCT KP15Y DCT SEGAP DCT 58N090W/N0489F330 DCT BODRA DCT 65N070W/M084F330 DCT DARUB DCT 68N050W 68N040W 67N030W 64N020W/M084F350 DCT PODAR DCT ADODO/N0480F350 DCT AMTAP DCT AKOMU DCT VAMEB UL612 MID/N0501F290 Y803 SFD UM605 BIBAX
Aircraft B77W/H-SDE1E2E3FGHIJ2J3J4J5M1RWXY/LB1D1

Departure

Time 2026-04-23 23:29
Airport Los Angeles International Airport (KLAX)

Arrival

Time N/A
Airport Charles de Gaulle International Airport (LFPG)
Time Latitude Longitude Altitude Speed Heading
2026-04-23 22:07 33.94397 -118.41136 138 ft 0 kts 83°
2026-04-23 23:08 33.94396 -118.41142 137 ft 2 kts 84°
2026-04-23 23:09 33.94396 -118.41159 137 ft 2 kts 97°
2026-04-23 23:09 33.94399 -118.41177 137 ft 2 kts 107°
2026-04-23 23:09 33.94404 -118.41193 137 ft 2 kts 116°
2026-04-23 23:09 33.94411 -118.41209 136 ft 2 kts 126°
2026-04-23 23:10 33.94421 -118.41223 136 ft 2 kts 135°
2026-04-23 23:10 33.94432 -118.41235 135 ft 2 kts 145°
2026-04-23 23:10 33.94445 -118.41244 135 ft 2 kts 155°
2026-04-23 23:10 33.94458 -118.41251 135 ft 2 kts 165°
2026-04-23 23:11 33.94473 -118.41254 135 ft 2 kts 174°
2026-04-23 23:11 33.94488 -118.41256 135 ft 2 kts 175°
2026-04-23 23:11 33.94503 -118.41258 135 ft 2 kts 173°
2026-04-23 23:11 33.94518 -118.41260 135 ft 2 kts 173°
2026-04-23 23:12 33.94533 -118.41263 135 ft 1 kts 173°
2026-04-23 23:12 33.94535 -118.41263 135 ft 0 kts 173°
2026-04-23 23:16 33.94534 -118.41263 135 ft 0 kts 173°
2026-04-23 23:17 33.94520 -118.41260 135 ft 2 kts 173°
2026-04-23 23:17 33.94500 -118.41258 135 ft 3 kts 173°
2026-04-23 23:17 33.94475 -118.41254 135 ft 4 kts 173°
2026-04-23 23:17 33.94439 -118.41248 135 ft 5 kts 173°
2026-04-23 23:18 33.94393 -118.41241 135 ft 7 kts 173°
2026-04-23 23:18 33.94338 -118.41232 135 ft 8 kts 174°
2026-04-23 23:18 33.94278 -118.41225 136 ft 8 kts 174°
2026-04-23 23:18 33.94216 -118.41217 135 ft 9 kts 172°
2026-04-23 23:19 33.94149 -118.41206 135 ft 9 kts 173°
2026-04-23 23:19 33.94091 -118.41197 136 ft 7 kts 173°
2026-04-23 23:19 33.94046 -118.41191 135 ft 6 kts 173°
2026-04-23 23:19 33.94000 -118.41184 135 ft 6 kts 173°
2026-04-23 23:20 33.93953 -118.41177 136 ft 6 kts 173°
2026-04-23 23:20 33.93912 -118.41171 137 ft 5 kts 173°
2026-04-23 23:20 33.93872 -118.41165 138 ft 5 kts 173°
2026-04-23 23:20 33.93830 -118.41159 140 ft 6 kts 173°
2026-04-23 23:21 33.93783 -118.41135 140 ft 8 kts 133°
2026-04-23 23:21 33.93771 -118.41061 140 ft 10 kts 85°
2026-04-23 23:21 33.93779 -118.40969 141 ft 11 kts 84°
2026-04-23 23:21 33.93789 -118.40874 141 ft 11 kts 83°
2026-04-23 23:22 33.93798 -118.40784 141 ft 10 kts 83°
2026-04-23 23:22 33.93806 -118.40701 141 ft 9 kts 83°
2026-04-23 23:22 33.93815 -118.40617 140 ft 10 kts 82°
2026-04-23 23:22 33.93826 -118.40521 138 ft 12 kts 82°
2026-04-23 23:23 33.93836 -118.40412 135 ft 13 kts 84°
2026-04-23 23:23 33.93849 -118.40288 133 ft 15 kts 83°
2026-04-23 23:23 33.93862 -118.40166 131 ft 14 kts 84°
2026-04-23 23:23 33.93872 -118.40050 129 ft 13 kts 84°
2026-04-23 23:24 33.93883 -118.39941 128 ft 13 kts 83°
2026-04-23 23:24 33.93896 -118.39827 126 ft 15 kts 83°
2026-04-23 23:24 33.93910 -118.39700 125 ft 16 kts 83°
2026-04-23 23:24 33.93926 -118.39545 121 ft 19 kts 84°
2026-04-23 23:25 33.93942 -118.39377 119 ft 21 kts 83°
2026-04-23 23:25 33.93962 -118.39195 117 ft 22 kts 83°
2026-04-23 23:25 33.93980 -118.39008 116 ft 22 kts 84°
2026-04-23 23:25 33.93998 -118.38823 114 ft 21 kts 83°
2026-04-23 23:26 33.94012 -118.38686 113 ft 14 kts 83°
2026-04-23 23:26 33.94024 -118.38572 113 ft 12 kts 83°
2026-04-23 23:26 33.94035 -118.38467 112 ft 12 kts 83°
2026-04-23 23:26 33.94047 -118.38350 111 ft 15 kts 83°
2026-04-23 23:27 33.94062 -118.38214 110 ft 16 kts 83°
2026-04-23 23:27 33.94075 -118.38087 110 ft 14 kts 83°
2026-04-23 23:27 33.94036 -118.38008 109 ft 11 kts 173°
2026-04-23 23:27 33.93985 -118.38053 109 ft 8 kts 254°
2026-04-23 23:28 33.93971 -118.38145 109 ft 21 kts 261°
2026-04-23 23:28 33.93928 -118.38578 112 ft 82 kts 263°
2026-04-23 23:28 33.93834 -118.39501 121 ft 137 kts 263°
2026-04-23 23:28 33.93697 -118.40840 142 ft 182 kts 263°
2026-04-23 23:29 33.93537 -118.42405 551 ft 192 kts 262°
2026-04-23 23:29 33.93334 -118.44025 1122 ft 200 kts 260°
2026-04-23 23:29 33.93113 -118.45650 1653 ft 199 kts 261°
2026-04-23 23:29 33.92944 -118.47340 1951 ft 206 kts 262°
2026-04-23 23:30 33.92524 -118.49019 2144 ft 218 kts 245°
2026-04-23 23:30 33.91850 -118.50701 2457 ft 225 kts 246°
2026-04-23 23:30 33.91217 -118.52430 2852 ft 227 kts 248°
2026-04-23 23:30 33.90596 -118.54211 3228 ft 233 kts 249°
2026-04-23 23:31 33.89961 -118.56045 3441 ft 248 kts 249°
2026-04-23 23:31 33.89268 -118.58041 3681 ft 263 kts 249°
2026-04-23 23:31 33.88553 -118.60097 4062 ft 272 kts 249°
2026-04-23 23:31 33.87822 -118.62197 4557 ft 276 kts 249°
2026-04-23 23:32 33.87078 -118.64335 5070 ft 280 kts 249°
2026-04-23 23:32 33.86227 -118.66470 5571 ft 285 kts 235°
2026-04-23 23:32 33.84768 -118.68069 6015 ft 291 kts 207°
2026-04-23 23:32 33.82811 -118.68729 6457 ft 296 kts 179°
2026-04-23 23:33 33.80812 -118.68226 6955 ft 296 kts 151°
2026-04-23 23:33 33.79217 -118.66676 7374 ft 298 kts 123°
2026-04-23 23:33 33.78400 -118.64425 7792 ft 297 kts 95°
2026-04-23 23:33 33.78534 -118.61989 8190 ft 297 kts 68°
2026-04-23 23:34 33.79577 -118.59875 8566 ft 296 kts 45°
2026-04-23 23:34 33.81002 -118.58109 9063 ft 297 kts 42°
2026-04-23 23:34 33.82491 -118.56335 9503 ft 301 kts 42°
2026-04-23 23:34 33.83978 -118.54567 9954 ft 305 kts 42°
2026-04-23 23:35 33.85513 -118.52743 10239 ft 315 kts 41°
2026-04-23 23:35 33.87121 -118.50832 10382 ft 331 kts 42°
2026-04-23 23:35 33.88792 -118.48844 10528 ft 347 kts 42°
2026-04-23 23:35 33.90543 -118.46757 10703 ft 363 kts 42°
2026-04-23 23:36 33.92360 -118.44576 10905 ft 378 kts 44°
2026-04-23 23:36 33.94042 -118.42004 11132 ft 395 kts 52°
2026-04-23 23:36 33.95603 -118.39259 11551 ft 402 kts 53°
2026-04-23 23:36 33.97190 -118.36446 12096 ft 407 kts 52°
2026-04-23 23:37 33.98786 -118.33621 12648 ft 412 kts 53°
2026-04-23 23:37 34.00414 -118.30740 13129 ft 418 kts 52°
2026-04-23 23:37 34.02047 -118.27853 13661 ft 423 kts 52°
2026-04-23 23:37 34.03702 -118.24931 14257 ft 427 kts 52°
2026-04-23 23:38 34.05396 -118.21942 14853 ft 431 kts 52°
2026-04-23 23:38 34.07090 -118.18948 15436 ft 436 kts 52°
2026-04-23 23:38 34.08793 -118.15936 16053 ft 439 kts 52°
2026-04-23 23:38 34.10510 -118.12897 16650 ft 442 kts 52°
2026-04-23 23:39 34.12275 -118.09772 17227 ft 447 kts 52°
2026-04-23 23:39 34.14011 -118.06695 17720 ft 452 kts 53°
2026-04-23 23:39 34.15803 -118.03513 18273 ft 456 kts 52°
2026-04-23 23:39 34.17585 -118.00348 18876 ft 458 kts 52°
2026-04-23 23:40 34.19357 -117.97199 19384 ft 462 kts 52°
2026-04-23 23:40 34.21186 -117.93945 19901 ft 466 kts 53°
2026-04-23 23:40 34.22987 -117.90736 20459 ft 469 kts 52°
2026-04-23 23:40 34.24822 -117.87466 21005 ft 472 kts 52°
2026-04-23 23:41 34.26669 -117.84171 21487 ft 476 kts 52°
2026-04-23 23:41 34.28536 -117.80838 21977 ft 479 kts 52°
2026-04-23 23:41 34.30402 -117.77502 22496 ft 482 kts 52°
2026-04-23 23:41 34.32294 -117.74117 22976 ft 485 kts 52°
2026-04-23 23:42 34.34174 -117.70752 23414 ft 489 kts 52°
2026-04-23 23:42 34.36109 -117.67328 23860 ft 492 kts 51°
2026-04-23 23:42 34.38123 -117.63959 24259 ft 496 kts 50°
2026-04-23 23:42 34.40135 -117.60615 24664 ft 500 kts 50°
2026-04-23 23:43 34.42181 -117.57205 25081 ft 503 kts 50°
2026-04-23 23:43 34.44235 -117.53774 25504 ft 506 kts 51°
2026-04-23 23:43 34.46293 -117.50328 25891 ft 510 kts 50°
2026-04-23 23:43 34.48381 -117.46827 26309 ft 512 kts 51°
2026-04-23 23:44 34.50463 -117.43330 26687 ft 516 kts 50°
2026-04-23 23:44 34.52584 -117.39762 27080 ft 519 kts 50°
2026-04-23 23:44 34.54686 -117.36221 27475 ft 522 kts 50°
2026-04-23 23:44 34.56818 -117.32627 27823 ft 525 kts 51°
2026-04-23 23:45 34.58954 -117.29021 28092 ft 530 kts 51°
2026-04-23 23:45 34.61093 -117.25407 28419 ft 534 kts 51°
2026-04-23 23:45 34.63263 -117.21736 28732 ft 538 kts 51°
2026-04-23 23:45 34.65444 -117.18040 29089 ft 540 kts 51°
2026-04-23 23:46 34.67639 -117.14319 29482 ft 541 kts 51°
2026-04-23 23:46 34.69832 -117.10595 29978 ft 541 kts 51°
2026-04-23 23:46 34.72007 -117.06898 30475 ft 539 kts 51°
2026-04-23 23:46 34.74188 -117.03187 30890 ft 539 kts 51°
2026-04-23 23:47 34.76375 -116.99463 30999 ft 543 kts 51°
2026-04-23 23:47 34.80742 -116.92013 31009 ft 539 kts 51°
2026-04-23 23:48 34.85079 -116.84601 31018 ft 540 kts 51°
2026-04-23 23:48 34.89431 -116.77147 31019 ft 541 kts 51°
2026-04-23 23:49 34.96584 -116.66679 30992 ft 537 kts 43°
2026-04-23 23:49 35.01649 -116.60029 30975 ft 534 kts 43°
2026-04-23 23:50 35.06677 -116.53410 30972 ft 536 kts 42°
2026-04-23 23:50 35.11743 -116.46719 30971 ft 535 kts 42°
2026-04-23 23:51 35.16799 -116.40027 30971 ft 536 kts 43°
2026-04-23 23:51 35.21853 -116.33321 30961 ft 533 kts 43°
2026-04-23 23:52 35.26859 -116.26667 30963 ft 535 kts 43°
2026-04-23 23:52 35.31920 -116.19924 30963 ft 536 kts 43°
2026-04-23 23:53 35.36948 -116.13212 30966 ft 535 kts 43°
2026-04-23 23:53 35.41974 -116.06490 30965 ft 537 kts 43°
2026-04-23 23:54 35.46991 -115.99764 30973 ft 535 kts 43°
2026-04-23 23:54 35.51991 -115.93050 30984 ft 536 kts 43°
2026-04-23 23:55 35.56996 -115.86313 30987 ft 536 kts 43°
2026-04-23 23:55 35.62031 -115.79525 30983 ft 537 kts 43°
2026-04-23 23:56 35.67018 -115.72727 30987 ft 538 kts 43°
2026-04-23 23:56 35.72000 -115.65868 30992 ft 538 kts 43°
2026-04-23 23:57 35.76981 -115.59000 30999 ft 539 kts 43°
2026-04-23 23:57 35.81950 -115.52137 31003 ft 538 kts 43°
2026-04-23 23:58 35.86921 -115.45258 31010 ft 538 kts 43°
2026-04-23 23:58 35.91916 -115.38333 31018 ft 537 kts 43°
2026-04-23 23:59 35.96899 -115.31411 30987 ft 539 kts 44°
2026-04-23 23:59 36.01841 -115.24532 30972 ft 540 kts 44°
2026-04-24 00:00 36.06845 -115.17556 30959 ft 540 kts 43°
2026-04-24 00:00 36.12290 -115.11297 30959 ft 534 kts 35°
2026-04-24 00:01 36.17860 -115.05318 30952 ft 532 kts 35°
2026-04-24 00:01 36.23463 -114.99287 30940 ft 533 kts 35°
2026-04-24 00:02 36.29071 -114.93231 30946 ft 533 kts 35°
2026-04-24 00:02 36.34657 -114.87186 30962 ft 534 kts 35°
2026-04-24 00:03 36.40259 -114.81111 30972 ft 536 kts 35°
2026-04-24 00:03 36.45832 -114.75054 30965 ft 534 kts 35°
2026-04-24 00:04 36.51421 -114.68972 30967 ft 536 kts 35°
2026-04-24 00:04 36.57011 -114.62875 30965 ft 535 kts 35°
2026-04-24 00:05 36.62618 -114.56747 30971 ft 535 kts 35°
2026-04-24 00:05 36.68205 -114.50628 30980 ft 535 kts 34°
2026-04-24 00:06 36.74054 -114.45106 30980 ft 525 kts 25°
2026-04-24 00:06 36.80260 -114.40243 30982 ft 524 kts 24°
2026-04-24 00:07 36.86452 -114.35394 30982 ft 524 kts 24°
2026-04-24 00:07 36.92661 -114.30519 30955 ft 528 kts 25°
2026-04-24 00:08 36.98842 -114.25650 30948 ft 524 kts 25°
2026-04-24 00:08 37.05029 -114.20770 30962 ft 526 kts 25°
2026-04-24 00:09 37.11201 -114.15887 30975 ft 524 kts 25°
2026-04-24 00:09 37.17365 -114.11004 30989 ft 526 kts 25°
2026-04-24 00:10 37.23595 -114.06055 31008 ft 523 kts 25°
2026-04-24 00:10 37.29741 -114.01166 31023 ft 524 kts 25°
2026-04-24 00:11 37.35882 -113.96271 31037 ft 523 kts 25°
2026-04-24 00:11 37.42056 -113.91340 31057 ft 523 kts 25°
2026-04-24 00:12 37.48181 -113.86436 31056 ft 520 kts 25°
2026-04-24 00:12 37.54334 -113.81505 31063 ft 523 kts 25°
2026-04-24 00:13 37.60455 -113.76584 31077 ft 518 kts 25°
2026-04-24 00:13 37.66559 -113.71672 31071 ft 523 kts 25°
2026-04-24 00:14 37.72712 -113.66708 31072 ft 520 kts 25°
2026-04-24 00:14 37.78785 -113.61798 31076 ft 519 kts 25°
2026-04-24 00:15 37.84920 -113.56831 31083 ft 520 kts 25°
2026-04-24 00:15 37.90966 -113.51904 31077 ft 521 kts 27°
2026-04-24 00:16 37.96459 -113.45680 31089 ft 533 kts 40°
2026-04-24 00:16 38.01524 -113.38732 31088 ft 537 kts 40°
2026-04-24 00:17 38.06556 -113.31788 31080 ft 534 kts 41°
2026-04-24 00:17 38.11614 -113.24794 31084 ft 536 kts 41°
2026-04-24 00:18 38.16627 -113.17843 31115 ft 533 kts 41°
2026-04-24 00:18 38.21616 -113.10913 31075 ft 530 kts 41°
2026-04-24 00:19 38.26590 -113.03991 31022 ft 530 kts 41°
2026-04-24 00:19 38.31580 -112.97031 31073 ft 531 kts 42°
2026-04-24 00:20 38.36558 -112.90069 31106 ft 528 kts 42°
2026-04-24 00:20 38.41541 -112.83088 31087 ft 527 kts 42°
2026-04-24 00:21 38.46457 -112.76183 31090 ft 525 kts 42°
2026-04-24 00:21 38.51401 -112.69225 31086 ft 523 kts 42°
2026-04-24 00:22 38.56295 -112.62322 31084 ft 523 kts 43°
2026-04-24 00:22 38.61191 -112.55404 31081 ft 524 kts 43°
2026-04-24 00:23 38.66020 -112.48562 31099 ft 521 kts 43°
2026-04-24 00:23 38.70860 -112.41689 31078 ft 519 kts 43°
2026-04-24 00:24 38.75712 -112.34788 31092 ft 522 kts 44°
2026-04-24 00:24 38.80581 -112.27844 31126 ft 521 kts 44°
2026-04-24 00:25 38.85375 -112.20992 31087 ft 515 kts 44°
2026-04-24 00:25 38.90181 -112.14110 31091 ft 518 kts 44°
2026-04-24 00:26 38.94997 -112.07196 31100 ft 516 kts 44°
2026-04-24 00:26 38.99788 -112.00304 31122 ft 515 kts 44°
2026-04-24 00:27 39.04798 -111.93810 31078 ft 511 kts 40°
2026-04-24 00:27 39.09963 -111.87437 31065 ft 510 kts 40°
2026-04-24 00:28 39.15068 -111.81084 31063 ft 512 kts 40°
2026-04-24 00:28 39.20197 -111.74667 31065 ft 511 kts 40°
2026-04-24 00:29 39.25275 -111.68286 31056 ft 510 kts 40°
2026-04-24 00:29 39.30365 -111.61871 31065 ft 511 kts 40°
2026-04-24 00:30 39.35448 -111.55447 31059 ft 512 kts 40°
2026-04-24 00:30 39.40541 -111.48996 31057 ft 512 kts 40°
2026-04-24 00:31 39.45604 -111.42565 31062 ft 512 kts 39°
2026-04-24 00:31 39.50727 -111.36046 31060 ft 513 kts 39°
2026-04-24 00:32 39.55804 -111.29569 31039 ft 512 kts 40°
2026-04-24 00:32 39.60871 -111.23090 31026 ft 511 kts 40°
2026-04-24 00:33 39.65930 -111.16609 31031 ft 514 kts 40°
2026-04-24 00:33 39.71007 -111.10090 31040 ft 512 kts 40°
2026-04-24 00:34 39.76063 -111.03583 31041 ft 512 kts 40°
2026-04-24 00:34 39.81134 -110.97044 31038 ft 514 kts 40°
2026-04-24 00:35 39.86192 -110.90506 31033 ft 514 kts 40°
2026-04-24 00:35 39.91266 -110.83933 31048 ft 513 kts 40°
2026-04-24 00:36 39.96335 -110.77353 31052 ft 516 kts 40°
2026-04-24 00:36 40.01389 -110.70776 31049 ft 514 kts 40°
2026-04-24 00:37 40.06461 -110.64162 31047 ft 514 kts 39°
2026-04-24 00:37 40.11501 -110.57574 31050 ft 513 kts 39°
2026-04-24 00:38 40.16544 -110.50969 31052 ft 512 kts 39°
2026-04-24 00:38 40.21540 -110.44411 31050 ft 512 kts 40°
2026-04-24 00:39 40.26607 -110.37744 31044 ft 513 kts 39°
2026-04-24 00:39 40.31628 -110.31123 31026 ft 512 kts 40°
2026-04-24 00:40 40.36630 -110.24513 31022 ft 513 kts 40°
2026-04-24 00:40 40.41639 -110.17877 31014 ft 511 kts 40°
2026-04-24 00:41 40.46654 -110.11221 31155 ft 518 kts 40°
2026-04-24 00:41 40.49208 -110.07825 31640 ft 515 kts 40°
2026-04-24 00:41 40.51689 -110.04519 32236 ft 510 kts 40°
2026-04-24 00:42 40.54151 -110.01235 32714 ft 506 kts 40°
2026-04-24 00:42 40.56615 -109.97948 32980 ft 507 kts 40°
2026-04-24 00:42 40.61597 -109.91293 33015 ft 512 kts 40°
2026-04-24 00:43 40.66581 -109.84615 33008 ft 508 kts 40°
2026-04-24 00:43 40.71592 -109.77889 32996 ft 510 kts 40°